Time,TemperatureF,DewpointF,PressureIn,WindDirection,WindDirectionDegrees,WindSpeedMPH,WindSpeedGustMPH,Humidity,HourlyPrecipIn,Conditions,Clouds,dailyrainin,SoftwareType,DateUTC
2013-05-15 00:13:00,36.4,27.0,30.04,NNE,31,1.0,1.0,68,0.00,,,0.00,weatherlink.com 1.10,2013-05-15 04:13:00,
2013-05-15 00:28:00,36.0,27.0,30.04,NNE,31,0.0,1.0,71,0.00,,,0.00,weatherlink.com 1.10,2013-05-15 04:28:00,
2013-05-15 00:43:00,36.0,27.0,30.04,NNE,31,0.0,1.0,69,0.00,,,0.00,weatherlink.com 1.10,2013-05-15 04:43:00,
2013-05-15 00:58:00,35.9,27.0,30.03,NNE,31,0.0,1.0,69,0.00,,,0.00,weatherlink.com 1.10,2013-05-15 04:58:00,
2013-05-15 01:13:00,36.0,26.0,30.03,NNE,31,0.0,1.0,67,0.00,,,0.00,weatherlink.com 1.10,2013-05-15 05:13:00,
2013-05-15 01:28:00,36.0,26.0,30.03,NNE,31,0.0,1.0,67,0.00,,,0.00,weatherlink.com 1.10,2013-05-15 05:28:00,
2013-05-15 01:43:00,36.1,26.0,30.03,NNE,31,1.0,1.0,67,0.00,,,0.00,weatherlink.com 1.10,2013-05-15 05:43:00,
2013-05-15 01:58:00,36.2,26.0,30.02,NNE,31,1.0,1.0,67,0.00,,,0.00,weatherlink.com 1.10,2013-05-15 05:58:00,
2013-05-15 02:14:00,36.3,27.0,30.03,NNE,31,0.0,1.0,68,0.00,,,0.00,weatherlink.com 1.10,2013-05-15 06:14:00,
2013-05-15 02:29:00,36.3,26.0,30.03,NNE,31,1.0,1.0,66,0.00,,,0.00,weatherlink.com 1.10,2013-05-15 06:29:00,
2013-05-15 02:44:00,36.0,26.0,30.03,NNE,31,1.0,1.0,66,0.00,,,0.00,weatherlink.com 1.10,2013-05-15 06:44:00,
2013-05-15 02:59:00,35.9,25.0,30.02,NNE,31,1.0,1.0,66,0.00,,,0.00,weatherlink.com 1.10,2013-05-15 06:59:00,
2013-05-15 03:14:00,35.6,25.0,30.02,NNE,31,0.0,0.0,65,0.00,,,0.00,weatherlink.com 1.10,2013-05-15 07:14:00,
2013-05-15 03:29:00,35.5,25.0,30.02,NNE,31,0.0,1.0,66,0.00,,,0.00,weatherlink.com 1.10,2013-05-15 07:29:00,
2013-05-15 03:44:00,35.8,26.0,30.02,NNE,31,0.0,1.0,67,0.00,,,0.00,weatherlink.com 1.10,2013-05-15 07:44:00,
2013-05-15 03:59:00,35.8,25.0,30.02,NNE,31,1.0,1.0,65,0.00,,,0.00,weatherlink.com 1.10,2013-05-15 07:59:00,
2013-05-15 04:14:00,35.6,26.0,30.02,NNE,31,0.0,1.0,68,0.00,,,0.00,weatherlink.com 1.10,2013-05-15 08:14:00,
2013-05-15 04:29:00,35.3,25.0,30.02,NNE,31,1.0,1.0,65,0.00,,,0.00,weatherlink.com 1.10,2013-05-15 08:29:00,
2013-05-15 04:44:00,35.2,24.0,30.02,NNE,31,0.0,1.0,65,0.00,,,0.00,weatherlink.com 1.10,2013-05-15 08:44:00,
2013-05-15 04:59:00,34.8,26.0,30.02,NNE,31,0.0,1.0,69,0.00,,,0.00,weatherlink.com 1.10,2013-05-15 08:59:00,
2013-05-15 05:14:00,34.7,25.0,30.03,NNE,31,0.0,1.0,69,0.00,,,0.00,weatherlink.com 1.10,2013-05-15 09:14:00,
2013-05-15 05:29:00,34.7,25.0,30.02,NNE,31,0.0,1.0,67,0.00,,,0.00,weatherlink.com 1.10,2013-05-15 09:29:00,
2013-05-15 05:44:00,35.1,26.0,30.02,NNE,31,0.0,0.0,69,0.00,,,0.00,weatherlink.com 1.10,2013-05-15 09:44:00,
2013-05-15 05:59:00,35.5,26.0,30.02,NNE,31,1.0,1.0,68,0.00,,,0.00,weatherlink.com 1.10,2013-05-15 09:59:00,
2013-05-15 06:14:00,37.2,27.0,30.02,NNE,31,0.0,1.0,66,0.00,,,0.00,weatherlink.com 1.10,2013-05-15 10:14:00,
2013-05-15 06:29:00,39.7,27.0,30.02,NNE,31,0.0,1.0,60,0.00,,,0.00,weatherlink.com 1.10,2013-05-15 10:29:00,
2013-05-15 06:44:00,43.3,27.0,30.02,SSE,151,0.0,1.0,54,0.00,,,0.00,weatherlink.com 1.10,2013-05-15 10:44:00,
2013-05-15 06:59:00,44.8,27.0,30.02,SSE,161,0.0,1.0,51,0.00,,,0.00,weatherlink.com 1.10,2013-05-15 10:59:00,
2013-05-15 07:29:00,46.7,28.0,30.02,SSW,206,2.0,3.0,48,0.00,,,0.00,weatherlink.com 1.10,2013-05-15 11:29:00,
2013-05-15 07:44:00,47.0,28.0,30.01,SW,220,1.0,3.0,48,0.00,,,0.00,weatherlink.com 1.10,2013-05-15 11:44:00,
2013-05-15 07:59:00,48.0,28.0,30.01,South,173,2.0,5.0,46,0.00,,,0.00,weatherlink.com 1.10,2013-05-15 11:59:00,
2013-05-15 08:14:00,49.3,28.0,30.00,SSE,162,1.0,4.0,44,0.00,,,0.00,weatherlink.com 1.10,2013-05-15 12:14:00,
2013-05-15 08:44:00,53.0,30.0,29.99,SW,215,1.0,3.0,41,0.00,,,0.00,weatherlink.com 1.10,2013-05-15 12:44:00,
2013-05-15 09:00:00,54.4,27.0,29.98,SW,228,5.0,7.0,35,0.00,,,0.00,weatherlink.com 1.10,2013-05-15 13:00:00,
2013-05-15 09:15:00,54.3,30.0,29.97,WSW,250,1.0,6.0,40,0.00,,,0.00,weatherlink.com 1.10,2013-05-15 13:15:00,
2013-05-15 10:15:00,58.9,28.0,29.94,NNW,341,0.0,4.0,31,0.00,,,0.00,weatherlink.com 1.10,2013-05-15 14:15:00,
2013-05-15 10:30:00,58.0,29.0,29.93,South,190,2.0,5.0,33,0.00,,,0.00,weatherlink.com 1.10,2013-05-15 14:30:00,
2013-05-15 10:45:00,57.9,30.0,29.92,SSE,148,0.0,8.0,35,0.00,,,0.00,weatherlink.com 1.10,2013-05-15 14:45:00,
2013-05-15 11:00:00,58.2,31.0,29.92,SE,133,2.0,8.0,36,0.00,,,0.00,weatherlink.com 1.10,2013-05-15 15:00:00,
2013-05-15 11:15:00,59.4,31.0,29.90,West,272,0.0,7.0,34,0.00,,,0.00,weatherlink.com 1.10,2013-05-15 15:15:00,
2013-05-15 11:30:00,60.0,29.0,29.90,WSW,248,0.0,6.0,31,0.00,,,0.00,weatherlink.com 1.10,2013-05-15 15:30:00,
2013-05-15 12:00:00,60.2,32.0,29.88,ESE,116,2.0,9.0,34,0.00,,,0.00,weatherlink.com 1.10,2013-05-15 16:00:00,
2013-05-15 12:15:00,59.6,30.0,29.87,WSW,248,1.0,9.0,33,0.00,,,0.00,weatherlink.com 1.10,2013-05-15 16:15:00,
2013-05-15 12:30:00,59.5,32.0,29.86,SW,223,5.0,10.0,35,0.00,,,0.00,weatherlink.com 1.10,2013-05-15 16:30:00,
2013-05-15 12:45:00,60.7,35.0,29.86,South,172,3.0,8.0,38,0.00,,,0.00,weatherlink.com 1.10,2013-05-15 16:45:00,
2013-05-15 13:00:00,62.8,34.0,29.84,WSW,244,1.0,10.0,34,0.00,,,0.00,weatherlink.com 1.10,2013-05-15 17:00:00,
2013-05-15 13:15:00,62.5,34.0,29.84,WSW,249,3.0,12.0,35,0.00,,,0.00,weatherlink.com 1.10,2013-05-15 17:15:00,
2013-05-15 13:30:00,62.9,35.0,29.82,SW,236,1.0,11.0,35,0.00,,,0.00,weatherlink.com 1.10,2013-05-15 17:30:00,
2013-05-15 13:45:00,62.7,35.0,29.80,WSW,244,1.0,11.0,35,0.00,,,0.00,weatherlink.com 1.10,2013-05-15 17:45:00,
2013-05-15 14:00:00,62.4,34.0,29.79,SW,219,2.0,10.0,34,0.00,,,0.00,weatherlink.com 1.10,2013-05-15 18:00:00,
2013-05-15 14:15:00,62.4,33.0,29.77,SSE,152,5.0,9.0,33,0.00,,,0.00,weatherlink.com 1.10,2013-05-15 18:15:00,
2013-05-15 14:30:00,62.2,33.0,29.76,South,186,5.0,12.0,34,0.00,,,0.00,weatherlink.com 1.10,2013-05-15 18:30:00,
2013-05-15 14:45:00,61.4,33.0,29.77,SW,221,2.0,7.0,35,0.00,,,0.00,weatherlink.com 1.10,2013-05-15 18:45:00,
2013-05-15 15:00:00,60.2,35.0,29.77,SSW,202,4.0,13.0,39,0.00,,,0.00,weatherlink.com 1.10,2013-05-15 19:00:00,
2013-05-15 15:16:00,59.5,34.0,29.75,SSW,198,2.0,9.0,38,0.00,,,0.00,weatherlink.com 1.10,2013-05-15 19:16:00,
2013-05-15 15:46:00,58.6,35.0,29.72,WSW,241,3.0,9.0,41,0.00,,,0.00,weatherlink.com 1.10,2013-05-15 19:46:00,
2013-05-15 16:01:00,57.2,37.0,29.71,West,280,1.0,9.0,47,0.00,,,0.00,weatherlink.com 1.10,2013-05-15 20:01:00,
2013-05-15 16:16:00,53.3,43.0,29.71,WNW,287,1.0,9.0,68,0.00,,,0.00,weatherlink.com 1.10,2013-05-15 20:16:00,
2013-05-15 16:31:00,52.2,44.0,29.70,South,191,1.0,10.0,74,0.00,,,0.00,weatherlink.com 1.10,2013-05-15 20:31:00,
2013-05-15 16:46:00,49.2,46.0,29.71,West,259,0.0,6.0,88,0.03,,,0.03,weatherlink.com 1.10,2013-05-15 20:46:00,
2013-05-15 17:01:00,48.6,46.0,29.69,SW,233,1.0,6.0,92,0.04,,,0.04,weatherlink.com 1.10,2013-05-15 21:01:00,
2013-05-15 17:16:00,48.0,46.0,29.68,WSW,240,1.0,7.0,94,0.06,,,0.06,weatherlink.com 1.10,2013-05-15 21:16:00,
2013-05-15 17:46:00,46.9,45.0,29.67,East,100,1.0,8.0,93,0.07,,,0.10,weatherlink.com 1.10,2013-05-15 21:46:00,
2013-05-15 18:16:00,46.6,45.0,29.66,WSW,257,1.0,9.0,95,0.06,,,0.12,weatherlink.com 1.10,2013-05-15 22:16:00,
2013-05-15 18:31:00,46.5,46.0,29.67,SSW,211,2.0,5.0,96,0.03,,,0.12,weatherlink.com 1.10,2013-05-15 22:31:00,
2013-05-15 18:46:00,46.4,46.0,29.65,SW,221,4.0,5.0,97,0.04,,,0.14,weatherlink.com 1.10,2013-05-15 22:46:00,
2013-05-15 19:01:00,46.5,46.0,29.64,SW,219,2.0,13.0,96,0.03,,,0.14,weatherlink.com 1.10,2013-05-15 23:01:00,
2013-05-15 19:16:00,46.6,46.0,29.64,WSW,252,1.0,7.0,96,0.02,,,0.14,weatherlink.com 1.10,2013-05-15 23:16:00,
2013-05-15 19:31:00,46.9,46.0,29.62,South,179,1.0,9.0,95,0.02,,,0.14,weatherlink.com 1.10,2013-05-15 23:31:00,
2013-05-15 19:46:00,47.0,46.0,29.64,NNE,12,1.0,5.0,95,0.00,,,0.14,weatherlink.com 1.10,2013-05-15 23:46:00,
2013-05-15 20:46:00,47.8,47.0,29.64,ESE,115,0.0,1.0,96,0.00,,,0.14,weatherlink.com 1.10,2013-05-16 00:46:00,
2013-05-15 21:01:00,48.3,47.0,29.64,SW,217,0.0,1.0,95,0.00,,,0.14,weatherlink.com 1.10,2013-05-16 01:01:00,
2013-05-15 21:16:00,48.2,47.0,29.64,SW,215,0.0,1.0,95,0.00,,,0.14,weatherlink.com 1.10,2013-05-16 01:16:00,
2013-05-15 21:31:00,48.1,47.0,29.64,SW,216,0.0,1.0,96,0.00,,,0.14,weatherlink.com 1.10,2013-05-16 01:31:00,
2013-05-15 21:46:00,48.2,47.0,29.64,SW,215,0.0,1.0,97,0.00,,,0.14,weatherlink.com 1.10,2013-05-16 01:46:00,
2013-05-15 22:31:00,50.1,49.0,29.64,NE,36,2.0,2.0,95,0.00,,,0.14,weatherlink.com 1.10,2013-05-16 02:31:00,
2013-05-15 22:46:00,50.2,49.0,29.64,NNE,13,0.0,2.0,95,0.00,,,0.14,weatherlink.com 1.10,2013-05-16 02:46:00,
2013-05-15 23:01:00,50.7,49.0,29.65,NE,36,0.0,3.0,94,0.00,,,0.14,weatherlink.com 1.10,2013-05-16 03:01:00,
2013-05-15 23:16:00,50.8,49.0,29.64,WNW,294,0.0,2.0,94,0.00,,,0.14,weatherlink.com 1.10,2013-05-16 03:16:00,
2013-05-15 23:31:00,50.5,49.0,29.64,NE,34,0.0,2.0,94,0.00,,,0.14,weatherlink.com 1.10,2013-05-16 03:31:00,
2013-05-15 23:46:00,50.5,49.0,29.64,NE,35,1.0,2.0,95,0.00,,,0.14,weatherlink.com 1.10,2013-05-16 03:46:00,